Key West, FL

5:13 AM EDT on May 23, 2017 (GMT -0400)
Key West International

Weather History for KEYW - January, 2014

Change the Weather History Date:

Wednesday, January 15, 2014

  Actual Average Record
Temperature  
Mean Temperature 70 °F 69 °F  
Max Temperature 73 °F 74 °F 87 °F (1877)
Min Temperature 67 °F 64 °F 47 °F (1964)
Degree Days  
Heating Degree Days 0 1  
Month to date heating degree days 9 15  
Since 1 July heating degree days 9 33  
Cooling Degree Days 5 5  
Month to date cooling degree days 111 77  
Year to date cooling degree days 111 77  
Growing Degree Days 19 (Base 50)    
Moisture  
Dew Point 63 °F    
Average Humidity 79    
Maximum Humidity 90    
Minimum Humidity 68    
Precipitation  
Precipitation T in 0.07 in 1.67 in (1998)
Month to date precipitation 4.66 0.97  
Year to date precipitation 4.66 0.97  
Snow  
Snow 0.00 in - - ()
Month to date snowfall 0.0  
Since 1 July snowfall 0.0  
Snow Depth 0.00 in    
Sea Level Pressure  
Sea Level Pressure 30.02 in    
Wind  
Wind Speed 11 mph (NNW)    
Max Wind Speed 20 mph    
Max Gust Speed 25 mph    
Visibility 10 miles    
Events Thunderstorm    
T = Trace of Precipitation, MM = Missing Value Source: NWS Daily Summary

Daily Weather History Graph

Daily Weather History Graph

Search for Another Location

Airport or City:

Trip Planner

Search our weather history database for the weather conditions in past years. The results will help you decide how hot, cold, wet, or windy it might be!

Date:

Astronomy

Jan. 15, 2014 Rise Set
Actual Time 7:13 AM EST 6:00 PM EST
Civil Twilight 6:48 AM EST 6:24 PM EST
Nautical Twilight 6:20 AM EST 6:52 PM EST
Astronomical Twilight 5:53 AM EST 7:20 PM EST
Moon 5:50 PM EST (1/15) 6:33 AM EST (1/15)
Length of Visible Light 11h 36m
Length of Day
10h 47m
Full, 100% of the Moon is Illuminated
Jan 15
Full
Jan 15
Full
Jan 24
Last Quarter
Jan 30
New
Feb 6
First Quarter

Hourly Weather History & Observations

Time (EST) Temp. Dew Point Humidity Pressure Visibility Wind Dir Wind Speed Gust Speed Precip Events Conditions
12:03 AM 72.0 °F 69.1 °F 91% 30.00 in 10.0 mi North 10.4 mph - N/A Thunderstorm Mostly Cloudy
12:10 AM 72.0 °F 69.1 °F 91% 30.00 in 10.0 mi NNW 11.5 mph - N/A   Mostly Cloudy
12:28 AM 71.1 °F 68.0 °F 90% 30.00 in 10.0 mi NNW 9.2 mph - N/A   Mostly Cloudy
12:41 AM 71.1 °F 68.0 °F 90% 30.00 in 10.0 mi North 9.2 mph - N/A   Mostly Cloudy
12:53 AM 72.0 °F 66.9 °F 84% 30.00 in 10.0 mi North 10.4 mph - N/A   Mostly Cloudy
1:53 AM 70.0 °F 66.0 °F 87% 29.99 in 10.0 mi North 10.4 mph - N/A   Scattered Clouds
2:53 AM 70.0 °F 64.9 °F 84% 29.98 in 10.0 mi North 10.4 mph - N/A   Partly Cloudy
3:53 AM 70.0 °F 66.0 °F 87% 29.97 in 10.0 mi NNE 6.9 mph - N/A   Clear
4:53 AM 70.0 °F 64.9 °F 84% 29.98 in 10.0 mi North 5.8 mph - N/A   Clear
5:53 AM 70.0 °F 66.0 °F 87% 29.99 in 10.0 mi North 4.6 mph - N/A   Partly Cloudy
6:53 AM 69.1 °F 66.0 °F 90% 29.99 in 10.0 mi North 4.6 mph - N/A   Clear
7:53 AM 70.0 °F 66.0 °F 87% 30.02 in 10.0 mi NNW 11.5 mph - N/A   Mostly Cloudy
8:02 AM 70.0 °F 64.9 °F 84% 30.02 in 10.0 mi NNW 11.5 mph - N/A   Mostly Cloudy
8:53 AM 71.1 °F 66.0 °F 84% 30.05 in 10.0 mi NNW 11.5 mph - N/A   Mostly Cloudy
9:07 AM 71.1 °F 66.0 °F 84% 30.05 in 10.0 mi NNW 13.8 mph - N/A   Mostly Cloudy
9:18 AM 71.1 °F 64.9 °F 81% 30.05 in 10.0 mi NNW 16.1 mph - N/A   Mostly Cloudy
9:27 AM 70.0 °F 64.9 °F 84% 30.06 in 10.0 mi NNW 12.7 mph - N/A   Mostly Cloudy
9:53 AM 70.0 °F 64.9 °F 84% 30.07 in 10.0 mi NNW 13.8 mph - N/A   Overcast
10:53 AM 69.1 °F 62.1 °F 78% 30.08 in 10.0 mi NNW 12.7 mph 20.7 mph N/A   Overcast
11:07 AM 69.1 °F 62.1 °F 78% 30.08 in 10.0 mi NNW 15.0 mph - N/A   Overcast
11:53 AM 72.0 °F 62.1 °F 71% 30.04 in 10.0 mi NNW 15.0 mph - N/A   Clear
12:53 PM 69.1 °F 60.1 °F 73% 30.04 in 10.0 mi NNW 16.1 mph - N/A   Partly Cloudy
1:53 PM 69.1 °F 59.0 °F 70% 30.01 in 10.0 mi NW 17.3 mph - N/A   Mostly Cloudy
2:53 PM 69.1 °F 60.1 °F 73% 30.00 in 10.0 mi NNW 10.4 mph - N/A   Partly Cloudy
3:53 PM 68.0 °F 57.9 °F 70% 29.99 in 10.0 mi NW 10.4 mph - N/A   Partly Cloudy
4:53 PM 68.0 °F 57.9 °F 70% 30.01 in 10.0 mi NNW 9.2 mph - N/A   Overcast
5:53 PM 68.0 °F 57.9 °F 70% 30.01 in 10.0 mi NNW 11.5 mph - N/A   Overcast
6:53 PM 68.0 °F 57.9 °F 70% 30.02 in 10.0 mi NNW 13.8 mph - 0.00 in   Overcast
7:53 PM 66.9 °F 57.9 °F 73% 30.01 in 10.0 mi NNW 12.7 mph - N/A   Overcast
8:53 PM 68.0 °F 57.9 °F 70% 30.02 in 10.0 mi NW 11.5 mph - N/A   Overcast
9:53 PM 68.0 °F 57.0 °F 68% 30.03 in 10.0 mi NW 12.7 mph - N/A   Clear
10:53 PM 68.0 °F 57.0 °F 68% 30.04 in 10.0 mi WNW 13.8 mph - N/A   Clear
11:53 PM 69.1 °F 55.9 °F 63% 30.05 in 10.0 mi WNW 16.1 mph 20.7 mph N/A   Clear